Lid_Strength_Index
3 3 2 3 3 3 2 2 3 2 2 2 2 1 1 1 2 2 5 2 1 -3 0 1 2 3 5 6 4 4 8 8 7 8 8 5 5 4 4 5 3 3 3 2 1
2 2 2 3 3 3 3 3 3 2 2 2 2 1 1 1 3 3 -1 -4 -3 -3 3 3 4 5 6 6 5 5 8 7 5 6 8 5 4 4 4 4 4 3 2 2 1
3 2 3 3 3 4 3 3 3 2 2 2 2 2 1 2 3 3 -3 -3 -2 -1 2 2 3 4 7 6 5 5 7 5 5 4 4 5 4 4 4 5 4 4 4 2 2
3 3 3 4 4 4 3 3 3 3 3 2 2 2 2 2 7 3 -3 -3 -3 2 2 3 4 5 6 7 5 6 5 4 5 4 4 5 4 4 4 4 4 3 2 2 2
3 3 3 4 4 4 4 4 3 3 3 2 2 2 2 4 3 3 -3 -2 3 3 3 4 4 4 6 5 4 6 5 4 4 4 4 5 5 5 4 3 3 2 2 3 2
3 3 3 4 4 4 4 4 4 3 3 2 3 2 2 5 -0 2 3 3 2 3 3 3 3 3 4 4 5 4 4 4 4 4 4 5 5 4 4 3 4 3 3 3 2
3 3 4 4 4 4 4 4 4 4 2 2 2 2 3 3 -0 -1 1 2 3 3 3 3 3 4 3 5 4 4 6 5 5 4 5 4 6 6 3 3 4 4 3 3 2
4 4 4 4 4 4 4 4 4 3 1 2 1 1 4 -0 -1 1 1 2 2 2 2 2 2 3 3 3 4 6 5 8 5 5 4 5 8 6 4 4 4 4 3 3 2
3 4 4 4 4 4 4 4 4 2 1 1 2 2 5 0 2 0 1 3 3 2 2 2 3 4 4 6 7 6 9 8 7 5 5 6 7 6 4 4 4 4 3 3 3
4 4 4 4 4 4 4 4 2 2 1 1 1 4 2 4 2 1 1 2 3 4 4 4 5 6 5 7 10 8 8 8 8 6 6 6 6 5 5 4 4 4 4 4 3
4 4 5 5 5 5 4 2 3 3 2 4 3 5 4 2 1 2 2 3 4 5 7 5 7 8 6 6 6 7 7 8 7 6 9 9 7 6 6 5 4 4 4 4 3
4 4 4 5 4 5 4 4 5 5 8 5 5 5 4 3 4 4 1 5 5 7 5 6 8 6 5 5 6 7 8 8 6 6 7 8 7 6 6 5 4 4 4 4 3
5 5 5 5 5 3 3 4 3 3 6 5 4 5 5 4 5 4 2 4 5 6 6 7 6 5 6 6 7 7 8 8 8 6 6 7 8 6 5 4 4 4 3 3 3
5 5 5 5 4 2 3 3 2 2 8 6 5 4 4 4 6 3 2 3 5 6 6 6 5 6 6 7 6 8 6 7 8 8 11 7 12 8 6 6 5 4 4 4 3
5 5 5 5 4 3 2 2 2 2 14 6 5 2 3 5 5 5 2 3 6 6 6 7 6 6 7 7 6 7 6 6 7 8 8 8 10 8 6 7 6 5 4 3 3
5 5 5 3 3 1 1 2 3 9 13 7 5 5 6 5 5 4 4 3 4 6 5 6 4 5 6 5 5 5 6 7 7 8 11 9 10 9 8 7 6 4 4 3 3
5 5 6 4 3 1 1 3 8 11 6 7 7 5 6 6 6 5 5 6 7 8 8 7 6 5 5 6 5 6 8 11 12 12 12 8 9 9 6 5 5 5 4 3 3
6 7 4 2 1 1 2 6 11 8 7 5 6 6 7 6 6 6 6 7 5 6 8 9 10 7 6 7 7 7 8 11 14 13 12 8 11 9 5 4 4 4 3 3 3
7 2 2 0 -0 1 5 9 9 7 6 6 6 8 7 6 6 6 6 7 6 6 8 9 9 5 5 5 6 7 9 7 10 9 11 10 8 6 5 5 4 4 4 3 2
7 4 3 1 1 3 6 9 7 5 5 6 8 7 8 7 7 7 7 6 6 5 5 7 10 6 6 5 5 6 6 9 9 14 15 11 10 10 8 6 5 4 4 3 3
5 5 2 1 2 5 9 8 7 5 5 7 7 8 7 7 7 8 7 6 5 5 5 6 8 8 6 7 8 7 8 8 8 10 13 14 11 6 7 5 5 5 4 4 3
5 7 2 2 6 6 7 6 8 6 6 7 6 7 8 7 7 7 8 6 5 5 7 5 7 10 8 6 5 6 7 8 11 12 10 11 11 5 4 5 5 4 4 3 2
7 6 2 3 9 7 5 6 5 6 6 7 8 7 6 7 8 7 6 5 5 5 6 6 9 11 10 8 6 8 7 7 8 9 12 13 11 6 5 5 4 4 4 4 3
7 8 5 5 5 7 7 7 7 5 5 6 6 6 7 8 6 7 7 5 4 5 5 3 7 10 13 10 8 9 8 7 8 11 10 10 9 7 6 6 5 4 4 3 3
6 7 6 9 7 6 6 7 8 8 6 5 6 6 7 8 8 8 7 6 5 4 4 5 10 8 8 8 8 8 8 8 9 9 10 9 9 7 6 6 5 4 3 4 4
8 8 7 8 8 9 9 9 9 8 8 8 7 7 6 8 8 9 8 8 8 6 7 7 11 8 9 8 8 9 8 8 8 8 8 8 8 5 5 4 5 4 4 4 4
5 6 7 9 9 10 9 9 9 8 7 7 7 7 7 7 6 7 7 6 6 7 8 8 10 11 13 9 9 11 9 8 7 7 7 9 7 5 5 5 5 4 4 4 4